St. Paul, MN

5:34 PM CDT on October 22, 2017 (GMT -0500)
Saint Paul Downtown-Holman

Weather History for KSTP - August, 2014

Change the Weather History Date:

Saturday, August 9, 2014

  Actual Average Record
Temperature  
Mean Temperature 72 °F -  
Max Temperature 81 °F 79 °F 93 °F (2007)
Min Temperature 66 °F 59 °F 57 °F (1996)
Cooling Degree Days 8    
Growing Degree Days 22 (Base 50)    
Moisture  
Dew Point 61 °F    
Average Humidity 68    
Maximum Humidity 84    
Minimum Humidity 46    
Precipitation  
Precipitation 0.00 in - - ()
Sea Level Pressure  
Sea Level Pressure 30.08 in    
Wind  
Wind Speed 4 mph (SE)    
Max Wind Speed 13 mph    
Max Gust Speed -    
Visibility 10 miles    
Events      
Averages and records for this station are not official NWS values.
T = Trace of Precipitation, MM = Missing Value Source: NWS Daily Summary

Daily Weather History Graph

Daily Weather History Graph

Search for Another Location

Airport or City:

Trip Planner

Search our weather history database for the weather conditions in past years. The results will help you decide how hot, cold, wet, or windy it might be!

Date:

Astronomy

Aug. 09, 2014 Rise Set
Actual Time 6:07 AM CDT 8:27 PM CDT
Civil Twilight 5:34 AM CDT 9:00 PM CDT
Nautical Twilight 4:53 AM CDT 9:40 PM CDT
Astronomical Twilight 4:08 AM CDT 10:25 PM CDT
Moon 7:28 PM CDT (8/9) 4:48 AM CDT (8/9)
Length of Visible Light 15h 25m
Length of Day
14h 20m
Waxing Gibbous, 98% of the Moon is Illuminated
Aug 9
Waxing Gibbous
Aug 10
Full
Aug 17
Last Quarter
Aug 25
New
Sep 2
First Quarter

Hourly Weather History & Observations

Time (CDT) Temp. Dew Point Humidity Pressure Visibility Wind Dir Wind Speed Gust Speed Precip Events Conditions
12:53 AM 68.0 °F 61.0 °F 78% 30.06 in 9.0 mi Calm Calm - N/A   Mostly Cloudy
1:53 AM 68.0 °F 62.1 °F 81% 30.06 in 9.0 mi Calm Calm - N/A   Clear
2:53 AM 68.0 °F 60.1 °F 76% 30.07 in 10.0 mi Calm Calm - N/A   Clear
3:53 AM 66.9 °F 61.0 °F 81% 30.07 in 10.0 mi ENE 3.5 mph - N/A   Partly Cloudy
4:53 AM 66.0 °F 61.0 °F 84% 30.09 in 10.0 mi Calm Calm - N/A   Clear
5:53 AM 66.0 °F 60.1 °F 81% 30.09 in 10.0 mi SE 5.8 mph - N/A   Overcast
6:53 AM 66.9 °F 61.0 °F 81% 30.10 in 10.0 mi SSE 6.9 mph - N/A   Overcast
7:53 AM 68.0 °F 61.0 °F 78% 30.10 in 10.0 mi SE 6.9 mph - N/A   Partly Cloudy
8:53 AM 71.1 °F 61.0 °F 70% 30.12 in 10.0 mi SE 6.9 mph - N/A   Partly Cloudy
9:53 AM 75.0 °F 60.1 °F 60% 30.12 in 10.0 mi SSE 10.4 mph - N/A   Overcast
10:53 AM 77.0 °F 57.9 °F 52% 30.12 in 10.0 mi SSE 8.1 mph - N/A   Scattered Clouds
12:53 PM 79.0 °F 57.9 °F 48% 30.09 in 10.0 mi SE 6.9 mph - N/A   Clear
1:53 PM 78.1 °F 55.9 °F 46% 30.09 in 10.0 mi SE 12.7 mph - N/A   Mostly Cloudy
2:53 PM 77.0 °F 57.9 °F 52% 30.09 in 10.0 mi ESE 9.2 mph - 0.00 in   Mostly Cloudy
3:53 PM 78.1 °F 60.1 °F 54% 30.08 in 10.0 mi SSE 6.9 mph - N/A   Mostly Cloudy
4:53 PM 77.0 °F 59.0 °F 54% 30.07 in 10.0 mi East 9.2 mph - N/A   Overcast
5:53 PM 78.1 °F 60.1 °F 54% 30.06 in 10.0 mi ESE 10.4 mph - N/A   Overcast
6:53 PM 77.0 °F 61.0 °F 58% 30.05 in 10.0 mi SE 5.8 mph - N/A   Mostly Cloudy
7:53 PM 75.0 °F 61.0 °F 62% 30.04 in 10.0 mi ESE 4.6 mph - N/A   Clear
8:53 PM 72.0 °F 63.0 °F 73% 30.05 in 10.0 mi Calm Calm - N/A   Clear
9:53 PM 71.6 °F 62.6 °F 73% 30.07 in 9.0 mi SE 3.5 mph - N/A   Clear
10:53 PM 70.0 °F 64.0 °F 81% 30.05 in 9.0 mi SE 5.8 mph - N/A   Clear
11:53 PM 69.1 °F 63.0 °F 81% 30.05 in 9.0 mi SE 4.6 mph - N/A   Clear